Torna al catalogo

COSMOS 839 DEB

AttivoUNKNOWN
NORAD 10413·DEBRIS·🇷🇺 Russia

Lanciato Jul 8, 1976 da Plesetsk Cosmodrome

Loading…

Prossimi Passaggi (prossime 24 ore)

TLE

AggiornatoSource: Space-Track

Epoca: Sep 14, 2026, 13:15 UTC

1 10413U 76067G   26257.55237997  .00000000  00000-0  21678-3 0  9991
2 10413  65.8773  93.8291 0683045 259.2062 122.8274 12.30005810250307

Traccia COSMOS 839 DEB in tempo reale con AllMySat

Download on the App Store